FW9191 Weather Reports


time (UTC)temp
C
wind
direction
speed
KPH
gust
KPH
rain 1hr
cm
rain 24hr
cm
rain mn
cm
humidity
%
barometer
mb
20260906234147 12 154 1.6 1.6 0.00 0.10 0.10 10 1016.6
20260906233646 12 152 1.6 3.2 0.00 0.10 0.10 10 1016.6
20260906233145 12 155 1.6 1.6 0.00 0.10 0.10 10 1016.4
20260906232640 12 151 1.6 3.2 0.00 0.10 0.10 10 1016.6
20260906232135 12 156 4.8 8.0 0.00 0.10 0.10 10 1016.7
20260906231630 12 166 1.6 3.2 0.00 0.10 0.10 10 1016.7
20260906231125 12 174 4.8 4.8 0.00 0.10 0.10 10 1016.7
20260906230624 12 171 1.6 3.2 0.00 0.10 0.10 10 1016.7
20260906230118 12 178 1.6 1.6 0.00 0.10 0.10 10 1016.6
20260906225612 12 162 3.2 3.2 0.00 0.10 0.10 10 1016.8
20260906225108 12 159 3.2 3.2 0.00 0.10 0.10 10 1016.8
20260906224603 12 152 1.6 1.6 0.00 0.10 0.10 10 1016.6
20260906224100 11 153 1.6 1.6 0.00 0.10 0.10 10 1016.7
20260906223556 11 136 3.2 3.2 0.00 0.10 0.10 10 1016.6
20260906223055 11 159 0.0 0.0 0.00 0.10 0.10 10 1016.7
20260906222554 11 116 4.8 4.8 0.00 0.10 0.10 10 1016.9
20260906222052 11 160 0.0 0.0 0.00 0.10 0.10 10 1016.8
20260906221550 11 144 3.2 3.2 0.00 0.10 0.10 10 1017.1
20260906221046 11 137 1.6 1.6 0.00 0.10 0.10 10 1017.0
20260906220541 11 147 3.2 3.2 0.00 0.10 0.10 10 1017.2
20260906220036 11 148 1.6 3.2 0.00 0.10 0.10 10 1017.1
20260906215535 11 139 4.8 8.0 0.00 0.10 0.10 10 1017.1
20260906215033 11 114 6.4 8.0 0.00 0.10 0.10 10 1016.8
20260906214532 11 122 3.2 4.8 0.00 0.10 0.10 10 1016.8
20260906214027 11 90 4.8 8.0 0.00 0.10 0.10 10 1016.8
20260906213526 11 117 4.8 4.8 0.00 0.10 0.10 10 1016.9
20260906213021 11 118 6.4 8.0 0.00 0.10 0.10 10 1016.9
20260906212515 11 97 4.8 9.7 0.00 0.10 0.10 10 1017.0
20260906212010 11 150 3.2 3.2 0.00 0.10 0.10 10 1017.1
20260906211504 11 70 6.4 8.0 0.00 0.10 0.10 10 1016.9
20260906210959 11 132 3.2 4.8 0.00 0.10 0.10 10 1017.1
20260906210449 10 144 1.6 1.6 0.00 0.10 0.10 10 1016.8
20260906205948 10 132 1.6 3.2 0.00 0.10 0.10 10 1016.9
20260906205444 10 100 1.6 3.2 0.00 0.10 0.10 10 1016.9
20260906204940 10 69 6.4 8.0 0.00 0.10 0.10 10 1017.1
20260906204439 10 112 3.2 3.2 0.00 0.10 0.10 10 1017.1
20260906203938 10 105 4.8 8.0 0.00 0.10 0.10 10 1017.0
20260906203434 10 110 3.2 3.2 0.00 0.10 0.10 10 1017.2
20260906202931 10 143 3.2 3.2 0.00 0.10 0.10 10 1017.0
20260906202430 10 66 4.8 4.8 0.00 0.10 0.10 10 1017.0
20260906201926 10 102 4.8 4.8 0.00 0.10 0.10 10 1017.0
20260906201420 10 117 3.2 4.8 0.00 0.10 0.10 10 1017.2
20260906200915 10 119 4.8 4.8 0.00 0.10 0.10 10 1017.3
20260906200412 10 147 1.6 3.2 0.00 0.10 0.10 10 1017.5
20260906195911 10 135 4.8 4.8 0.00 0.10 0.10 10 1017.2
20260906195408 10 154 1.6 1.6 0.00 0.10 0.10 10 1017.5
20260906194904 10 154 1.6 1.6 0.00 0.10 0.10 10 1017.5
20260906194359 9 131 4.8 4.8 0.00 0.10 0.10 10 1017.8
20260906193854 9 136 4.8 4.8 0.00 0.10 0.10 10 1017.7
20260906193349 10 147 1.6 1.6 0.00 0.10 0.10 10 1017.7
20260906192845 9 148 4.8 4.8 0.00 0.10 0.10 10 1017.6
20260906192339 9 135 4.8 8.0 0.18 0.10 0.10 10 1017.8
20260906191838 9 135 4.8 4.8 0.18 0.10 0.10 10 1017.7
20260906191333 9 114 4.8 4.8 0.00 0.08 0.08 10 1017.8
20260906190827 9 122 1.6 3.2 0.00 0.08 0.08 10 1017.9
20260906190326 9 162 3.2 3.2 0.00 0.08 0.08 10 1018.1
20260906185821 8 157 0.0 0.0 0.00 0.08 0.08 10 1017.8
20260906185320 9 165 1.6 1.6 0.00 0.08 0.08 10 1018.0
20260906184815 8 162 0.0 0.0 0.00 0.08 0.08 10 1017.9
20260906184310 8 155 1.6 1.6 0.00 0.08 0.08 10 1017.9
20260906183805 8 153 1.6 3.2 0.00 0.08 0.08 10 1018.2
20260906183302 8 153 0.0 1.6 0.00 0.08 0.08 10 1018.2
20260906182802 8 166 0.0 1.6 0.00 0.08 0.08 10 1018.0
20260906182257 8 150 3.2 3.2 0.00 0.08 0.08 10 1018.1
20260906181752 8 150 0.0 0.0 0.00 0.08 0.08 10 1018.2
20260906181248 8 152 1.6 1.6 0.00 0.08 0.08 10 1018.2
20260906180743 8 137 0.0 1.6 0.00 0.08 0.08 10 1018.1
20260906180238 8 107 0.0 1.6 0.18 0.08 0.08 10 1018.0
20260906175735 8 103 4.8 4.8 0.18 0.08 0.08 10 1018.2
20260906175231 8 137 1.6 3.2 0.00 0.05 0.05 10 1018.1
20260906174729 8 129 3.2 4.8 0.00 0.05 0.05 10 1018.1
20260906174224 8 125 0.0 3.2 0.00 0.05 0.05 10 1018.2
20260906173719 8 127 6.4 8.0 0.13 0.05 0.05 10 1018.2
20260906173215 8 128 3.2 4.8 0.00 0.03 0.03 10 1018.2
20260906172714 8 104 4.8 4.8 0.00 0.03 0.03 10 1018.6
20260906172209 8 97 4.8 8.0 0.00 0.03 0.03 10 1018.4
20260906171704 8 128 1.6 3.2 0.00 0.03 0.03 10 1018.1
20260906171200 8 129 3.2 4.8 0.00 0.03 0.03 10 1018.2
20260906170656 9 140 3.2 3.2 0.00 0.03 0.03 10 1018.5
20260906170156 8 170 3.2 3.2 0.00 0.03 0.03 10 1018.2
20260906165651 8 120 4.8 4.8 0.00 0.03 0.03 10 1018.0
20260906165147 8 154 3.2 4.8 0.00 0.03 0.03 10 1018.4
20260906164645 9 169 1.6 3.2 0.00 0.03 0.03 10 1018.4
20260906164141 8 169 0.0 0.0 0.00 0.03 0.03 10 1018.2
20260906163637 8 186 3.2 4.8 0.00 0.03 0.03 10 1018.5
20260906163133 8 168 0.0 1.6 0.00 0.03 0.03 10 1018.7
20260906162630 8 170 1.6 1.6 0.00 0.03 0.03 10 1018.7
20260906162130 7 173 1.6 1.6 0.00 0.03 0.03 10 1018.6
20260906161630 7 190 0.0 0.0 0.00 0.03 0.03 10 1018.7
20260906161128 7 174 0.0 0.0 0.00 0.03 0.03 10 1018.8
20260906160627 7 172 0.0 0.0 0.00 0.03 0.03 10 1018.7
20260906160127 7 171 0.0 0.0 0.00 0.03 0.03 10 1018.8
20260906155624 7 170 0.0 0.0 0.00 0.03 0.03 10 1018.7
20260906155120 7 176 0.0 0.0 0.00 0.03 0.03 10 1018.8
20260906154615 6 181 0.0 0.0 0.00 0.03 0.03 10 1018.6
20260906154115 6 180 0.0 0.0 0.00 0.03 0.03 10 1018.8
20260906153614 6 187 1.6 3.2 0.00 0.03 0.03 10 1018.6
20260906153108 6 206 3.2 3.2 0.00 0.03 0.03 10 1018.8
20260906152603 6 173 0.0 0.0 0.00 0.03 0.03 10 1019.0
20260906152057 6 179 0.0 0.0 0.00 0.03 0.03 10 1018.8
20260906151552 6 188 1.6 3.2 0.00 0.03 0.03 10 1018.7
20260906151048 6 181 0.0 0.0 0.00 0.03 0.03 10 1018.7
20260906150543 6 198 3.2 3.2 0.00 0.03 0.03 10 1018.8
20260906150038 6 175 0.0 0.0 0.00 0.03 0.03 10 1019.0
20260906145537 6 194 1.6 1.6 0.00 0.03 0.03 10 1019.0
20260906145032 6 199 3.2 3.2 0.00 0.03 0.03 10 1019.0
20260906144526 6 213 3.2 3.2 0.00 0.03 0.03 10 1018.9
20260906144022 6 194 0.0 0.0 0.00 0.03 0.03 10 1019.0
20260906143517 6 192 0.0 0.0 0.00 0.03 0.03 10 1019.3
20260906143013 6 218 1.6 3.2 0.00 0.03 0.03 10 1019.3
20260906142507 6 193 1.6 1.6 0.00 0.03 0.03 10 1018.9
20260906142003 6 176 0.0 1.6 0.00 0.03 0.03 10 1019.1
20260906141501 6 201 3.2 3.2 0.00 0.03 0.03 10 1019.3
20260906140957 6 190 1.6 3.2 0.00 0.03 0.03 10 1018.9
20260906140450 6 187 1.6 1.6 0.00 0.03 0.03 10 1019.4
20260906135949 6 176 1.6 1.6 0.00 0.03 0.03 10 1019.4
20260906135448 6 175 0.0 0.0 0.00 0.03 0.03 10 1019.4
20260906134943 6 178 0.0 0.0 0.00 0.03 0.03 10 1019.4
20260906134439 6 173 0.0 0.0 0.00 0.03 0.03 10 1019.4
20260906133939 6 173 0.0 0.0 0.00 0.03 0.03 10 1019.7
20260906133435 6 177 0.0 0.0 0.00 0.03 0.03 10 1019.5
20260906132930 6 201 3.2 4.8 0.00 0.03 0.03 10 1019.4
20260906132425 6 201 3.2 3.2 0.00 0.03 0.03 10 1019.1
20260906131921 6 190 0.0 0.0 0.00 0.03 0.03 10 1019.3
20260906131416 6 195 3.2 4.8 0.00 0.03 0.03 10 1019.7
20260906130912 6 203 4.8 8.0 0.00 0.03 0.03 10 1019.6
20260906130411 6 175 0.0 0.0 0.00 0.03 0.03 10 1019.6
20260906125911 6 188 0.0 0.0 0.00 0.03 0.03 10 1019.6
20260906125408 6 175 0.0 0.0 0.00 0.03 0.03 10 1019.4
20260906124903 6 173 0.0 0.0 0.00 0.03 0.03 10 1019.8
20260906124359 6 176 0.0 0.0 0.00 0.03 0.03 10 1019.8
20260906123858 6 174 0.0 0.0 0.00 0.03 0.03 10 1019.7
20260906123353 6 179 0.0 0.0 0.00 0.03 0.03 10 1019.8
20260906122853 6 185 0.0 0.0 0.00 0.03 0.03 10 1020.0
20260906122353 6 184 0.0 0.0 0.00 0.03 0.03 10 1019.9
20260906121850 6 180 0.0 0.0 0.00 0.03 0.03 10 1019.6
20260906121345 6 191 0.0 0.0 0.00 0.03 0.03 10 1019.6
20260906120841 6 196 0.0 1.6 0.00 0.03 0.03 10 1019.7
20260906120337 6 177 0.0 0.0 0.00 0.03 0.03 10 1019.9
20260906115833 6 176 0.0 0.0 0.00 0.03 0.03 10 1020.2
20260906115328 6 179 0.0 0.0 0.00 0.03 0.03 10 1020.0
20260906114827 6 200 3.2 4.8 0.00 0.03 0.03 10 1020.2
20260906114323 6 186 4.8 8.0 0.00 0.03 0.03 10 1019.9
20260906113818 6 197 3.2 4.8 0.00 0.03 0.03 10 1020.4
20260906113317 6 207 6.4 8.0 0.00 0.03 0.03 10 1020.4
20260906112813 6 176 4.8 8.0 0.00 0.03 0.03 10 1020.6
20260906112309 6 210 6.4 9.7 0.00 0.03 0.03 10 1020.4
20260906111809 6 191 6.4 8.0 0.00 0.03 0.03 10 1020.2
20260906111308 6 191 3.2 4.8 0.00 0.03 0.03 10 1020.3
20260906110803 6 188 1.6 3.2 0.00 0.03 0.03 10 1020.7
20260906110259 6 196 1.6 3.2 0.00 0.03 0.03 10 1020.4
20260906105758 6 178 0.0 0.0 0.00 0.03 0.03 10 1020.4
20260906105254 6 172 0.0 0.0 0.00 0.03 0.03 10 1020.6
20260906104749 6 194 1.6 3.2 0.00 0.03 0.03 10 1020.5
20260906104247 6 185 0.0 0.0 0.00 0.03 0.03 10 1020.5
20260906103746 6 171 0.0 0.0 0.00 0.03 0.03 10 1020.6
20260906103246 6 165 0.0 0.0 0.00 0.03 0.03 10 1020.7
20260906102742 6 170 0.0 0.0 0.00 0.03 0.03 10 1020.5
20260906102240 6 160 0.0 0.0 0.00 0.03 0.03 10 1020.0
20260906101736 6 152 0.0 0.0 0.00 0.03 0.03 10 1020.3
20260906101231 6 173 0.0 0.0 0.00 0.03 0.03 10 1020.3
20260906100726 5 172 0.0 0.0 0.00 0.03 0.03 10 1020.4
20260906100226 5 174 0.0 0.0 0.00 0.03 0.03 10 1020.4
20260906095721 5 181 0.0 0.0 0.00 0.03 0.03 10 1020.5
20260906095216 5 163 0.0 0.0 0.00 0.03 0.03 10 1020.7
20260906094714 5 176 0.0 0.0 0.00 0.03 0.03 10 1020.6
20260906094210 5 164 0.0 0.0 0.00 0.03 0.03 10 1020.8
20260906093707 5 166 0.0 0.0 0.00 0.03 0.03 10 1020.8
20260906093202 5 167 0.0 0.0 0.00 0.03 0.03 10 1020.8
20260906092657 6 171 0.0 0.0 0.00 0.03 0.03 10 1021.1
20260906092156 6 176 0.0 0.0 0.00 0.03 0.03 10 1020.9
20260906091653 5 158 0.0 0.0 0.00 0.03 0.03 10 1020.8
20260906091149 5 141 1.6 3.2 0.00 0.03 0.03 10 1020.9
20260906090645 5 137 3.2 3.2 0.00 0.03 0.03 10 1021.2
20260906090144 6 151 3.2 4.8 0.00 0.03 0.03 10 1021.3
20260906085643 6 131 4.8 4.8 0.00 0.03 0.03 10 1021.4
20260906085138 5 133 6.4 8.0 0.00 0.03 0.03 10 1021.2
20260906084638 6 147 1.6 3.2 0.00 0.03 0.03 10 1021.2
20260906084137 6 156 0.0 0.0 0.00 0.03 0.03 10 1021.5
20260906083632 6 165 0.0 0.0 0.00 0.03 0.03 10 1021.4
20260906083127 6 170 0.0 0.0 0.00 0.03 0.03 10 1021.4
20260906082623 6 163 0.0 0.0 0.00 0.03 0.03 10 1021.6
20260906082118 6 165 0.0 0.0 0.00 0.03 0.03 10 1021.6
20260906081614 6 162 0.0 0.0 0.18 0.03 0.03 10 1021.4
20260906081108 6 161 0.0 0.0 0.18 0.03 0.03 10 1021.3
20260906080606 6 146 0.0 0.0 0.00 0.00 0.00 10 1021.2
20260906075555 6 144 0.0 0.0 0.00 0.00 0.00 10 1021.4
20260906075050 7 155 0.0 0.0 0.00 0.00 0.00 10 1021.4
20260906074544 7 158 0.0 0.0 0.00 0.00 0.00 10 1021.5
20260906074043 7 159 0.0 0.0 0.00 0.00 0.00 10 1021.5
20260906073538 7 157 0.0 0.0 0.00 0.00 0.00 10 1021.5
20260906073029 7 153 0.0 0.0 0.00 0.00 0.00 10 1021.5
20260906072523 7 150 0.0 0.0 0.00 0.00 0.00 10 1021.6
20260906072020 7 161 0.0 0.0 0.00 0.00 0.00 10 1021.5
20260906071515 7 160 0.0 0.0 0.00 0.00 0.00 10 1021.5
20260906071010 7 159 0.0 0.0 0.00 0.00 0.00 10 1021.5
20260906070506 7 151 0.0 0.0 0.00 0.00 0.00 10 1021.8
20260906070002 7 158 0.0 0.0 0.00 0.00 0.00 10 1021.7
20260906065455 7 159 0.0 0.0 0.00 0.00 0.00 10 1021.6
20260906064951 7 162 0.0 0.0 0.00 0.00 0.00 10 1021.7
20260906064447 7 158 0.0 0.0 0.00 0.00 0.00 10 1021.6
20260906063942 7 162 0.0 0.0 0.00 0.00 0.00 10 1021.6
20260906063438 7 156 0.0 0.0 0.00 0.00 0.00 10 1021.6
20260906062938 7 157 0.0 0.0 0.00 0.00 0.00 10 1021.6
20260906062433 7 164 0.0 0.0 0.00 0.00 0.00 10 1021.5
20260906061928 7 182 0.0 0.0 0.00 0.00 0.00 10 1021.5
20260906061424 7 176 0.0 0.0 0.00 0.00 0.00 10 1021.5
20260906060918 7 183 0.0 0.0 0.00 0.00 0.00 10 1021.4
20260906060415 7 158 0.0 0.0 0.00 0.00 0.00 10 1021.8
20260906055911 7 158 0.0 0.0 0.00 0.43 0.43 10 1021.7
20260906055407 7 158 0.0 0.0 0.00 0.43 0.43 10 1022.0
20260906054902 7 158 0.0 0.0 0.00 0.43 0.43 10 1022.0
20260906054357 7 160 0.0 0.0 0.00 0.43 0.43 10 1022.0
20260906053853 7 158 0.0 0.0 0.00 0.43 0.43 10 1021.8
20260906053349 7 165 0.0 0.0 0.00 0.43 0.43 10 1022.0
20260906052844 7 169 0.0 0.0 0.00 0.43 0.43 10 1022.0
20260906052340 7 170 0.0 0.0 0.00 0.43 0.43 10 1022.1
20260906051837 7 171 0.0 0.0 0.00 0.43 0.43 10 1022.1
20260906051336 7 158 0.0 0.0 0.00 0.43 0.43 10 1022.1
20260906050832 7 160 0.0 0.0 0.00 0.43 0.43 10 1022.1
20260906050327 8 160 0.0 0.0 0.00 0.43 0.43 10 1022.4
20260906045826 8 158 0.0 0.0 0.00 0.43 0.43 10 1022.4
20260906045320 7 169 0.0 0.0 0.00 0.43 0.43 10 1022.5
20260906044817 7 171 0.0 0.0 0.00 0.43 0.43 10 1022.2
20260906044317 8 160 0.0 0.0 0.00 0.43 0.43 10 1022.2
20260906043813 7 160 0.0 0.0 0.00 0.43 0.43 10 1022.1
20260906043309 7 160 0.0 0.0 0.00 0.43 0.43 10 1022.1
20260906042803 7 160 0.0 0.0 0.00 0.43 0.43 10 1022.0
20260906042306 7 160 0.0 0.0 0.00 0.43 0.43 10 1022.0
20260906041758 7 159 0.0 0.0 0.00 0.43 0.43 10 1022.1
20260906041253 7 161 0.0 0.0 0.00 0.43 0.43 10 1021.7
20260906040748 8 160 0.0 0.0 0.00 0.43 0.43 10 1021.6
20260906040243 8 164 0.0 0.0 0.00 0.43 0.43 10 1021.6
20260906035738 8 164 0.0 0.0 0.00 0.43 0.43 10 1021.6
20260906035234 8 164 0.0 0.0 0.00 0.43 0.43 10 1021.4
20260906034734 7 164 0.0 0.0 0.00 0.43 0.43 10 1021.6
20260906034229 8 165 0.0 0.0 0.00 0.43 0.43 10 1021.6
20260906033725 8 165 0.0 0.0 0.00 0.43 0.43 10 1021.6
20260906033224 8 165 0.0 0.0 0.00 0.43 0.43 10 1021.1
20260906032721 8 166 0.0 0.0 0.00 0.43 0.43 10 1021.4
20260906032221 8 178 0.0 0.0 0.00 0.43 0.43 10 1021.6
20260906031716 8 166 0.0 0.0 0.00 0.43 0.43 10 1021.3
20260906031212 8 162 0.0 0.0 0.00 0.43 0.43 10 1021.3
20260906030711 8 162 0.0 0.0 0.00 0.43 0.43 10 1021.5
20260906030207 8 161 0.0 0.0 0.00 0.43 0.43 10 1021.3
20260906025706 8 161 0.0 0.0 0.00 0.43 0.43 10 1021.4
20260906025200 8 161 0.0 0.0 0.00 0.43 0.43 10 1021.2
20260906024654 8 161 0.0 0.0 0.00 0.43 0.43 10 1021.1
20260906024153 8 157 0.0 0.0 0.00 0.43 0.43 10 1020.9
20260906023650 8 148 1.6 1.6 0.00 0.43 0.43 10 1020.9
20260906023149 8 70 4.8 4.8 0.00 0.43 0.43 10 1021.4
20260906022644 8 139 0.0 1.6 0.00 0.43 0.43 10 1021.4
20260906022140 8 95 4.8 4.8 0.00 0.43 0.43 10 1021.3
20260906021636 8 133 0.0 1.6 0.00 0.43 0.43 10 1021.5
20260906021134 8 101 3.2 3.2 0.13 0.43 0.43 10 1021.2
20260906020629 8 114 3.2 3.2 0.13 0.43 0.43 10 1021.5
20260906020124 8 144 0.0 0.0 0.00 0.41 0.41 10 1021.4
20260906015618 8 143 0.0 1.6 0.00 0.41 0.41 10 1021.7
20260906015117 8 134 1.6 1.6 0.00 0.41 0.41 10 1021.4
20260906014612 8 143 3.2 3.2 0.00 0.41 0.41 10 1021.6
20260906014108 8 127 4.8 4.8 0.00 0.41 0.41 10 1021.3
20260906013603 8 116 4.8 4.8 0.00 0.41 0.41 10 1021.5
20260906013058 8 120 3.2 3.2 0.00 0.41 0.41 10 1021.1
20260906012553 8 163 1.6 3.2 0.00 0.41 0.41 10 1021.6
20260906012053 8 159 0.0 0.0 0.00 0.41 0.41 10 1021.3
20260906011549 8 149 1.6 3.2 0.00 0.41 0.41 10 1021.2
20260906011049 8 160 0.0 0.0 0.00 0.41 0.41 10 1021.1
20260906010544 8 126 3.2 4.8 0.00 0.41 0.41 10 1021.3
20260906010041 8 145 0.0 0.0 0.00 0.41 0.41 10 1021.3
20260906005540 8 139 1.6 3.2 0.00 0.41 0.41 10 1021.1
20260906005039 8 97 4.8 4.8 0.00 0.41 0.41 10 1020.9
20260906004538 9 154 0.0 1.6 0.00 0.41 0.41 10 1021.1
20260906004033 8 96 3.2 3.2 0.00 0.41 0.41 10 1021.2
20260906003528 8 129 4.8 4.8 0.00 0.41 0.41 10 1020.9
20260906003025 8 99 6.4 8.0 0.00 0.41 0.41 10 1020.9
20260906002519 8 105 8.0 9.7 0.00 0.41 0.41 10 1021.2
20260906002014 8 118 4.8 4.8 0.00 0.41 0.41 10 1020.9
20260906001510 8 109 4.8 4.8 0.00 0.41 0.41 10 1021.2
20260906001004 8 99 4.8 4.8 0.00 0.41 0.41 10 1020.8
20260906000500 9 127 4.8 8.0 0.00 0.41 0.41 10 1021.1
20260905235959 9 93 8.0 9.7 0.00 0.41 0.41 10 1020.9
20260905235454 9 107 4.8 4.8 0.00 0.41 0.41 10 1020.9
20260905234949 9 69 8.0 9.7 0.18 0.41 0.41 10 1020.9